Temperature
18 18 18 18 18 18 18 17 17 17 17 17 17 17 17 17 17 17 17 17 17 17 17 17 17 16 16 16 16 16 16 16 16 16 16 16 16 16 16 16 16 16 16
18 18 18 18 17 17 18 17 17 17 17 17 17 17 17 17 17 17 17 17 17 17 17 17 17 17 16 16 16 16 16 16 16 16 16 16 16 16 16 16 16 15 15
18 18 18 18 17 17 17 17 17 17 17 17 17 17 17 17 17 16 16 16 16 17 17 17 17 17 16 16 16 16 16 16 16 16 16 16 16 16 16 15 15 15 15
18 18 18 17 17 17 17 17 17 17 17 17 17 17 17 17 16 16 16 16 16 16 16 17 17 16 16 16 16 16 16 16 16 16 16 16 16 16 15 15 15 15 15
18 18 18 18 17 17 17 17 17 17 17 17 17 17 17 16 16 16 16 16 16 16 16 16 16 16 16 16 16 16 16 16 15 16 15 15 15 15 15 15 15 15 15
18 17 17 18 17 17 17 17 17 17 17 17 17 17 17 16 16 16 16 16 16 16 16 16 16 16 16 16 16 16 15 15 15 15 15 15 15 15 15 15 15 15 15
17 17 17 17 17 17 17 17 17 17 17 17 17 17 17 16 16 16 16 16 16 16 16 16 16 15 15 16 16 16 15 15 15 15 15 15 15 15 15 15 15 15 15
17 17 17 17 17 17 17 17 17 17 17 17 17 17 18 17 16 16 16 16 16 16 16 15 15 16 15 15 15 15 15 15 15 15 15 15 15 15 15 15 15 15 14
17 18 17 17 17 17 17 17 17 17 17 17 17 17 18 18 17 16 16 16 16 16 16 15 15 15 15 15 15 15 15 15 15 15 15 15 15 15 14 14 14 14 14
17 17 17 17 17 17 17 17 17 17 17 17 17 17 17 17 17 17 16 16 16 15 15 15 15 15 15 15 15 15 15 15 15 15 15 15 14 14 14 14 14 14 14
17 17 17 17 17 17 17 17 17 17 17 17 17 17 17 17 17 17 16 16 15 15 15 15 15 15 15 15 15 15 15 15 15 14 14 14 14 14 14 14 14 14 14
17 17 17 17 17 17 17 17 17 17 17 17 17 17 17 17 17 17 16 16 15 15 15 15 15 14 14 14 14 14 14 14 14 14 14 14 14 14 14 14 14 14 14
17 17 17 17 17 17 17 17 17 17 17 17 17 16 16 16 16 16 16 16 15 15 14 14 14 14 14 14 14 14 14 14 14 14 14 14 14 13 13 14 13 13 13
17 17 17 17 17 17 17 17 17 17 17 17 16 16 16 16 16 16 16 16 15 15 15 14 14 14 14 13 14 13 13 13 13 13 13 13 13 13 13 13 13 13 13
17 17 17 17 17 17 17 17 17 17 17 17 16 16 16 16 16 16 16 16 16 15 15 14 14 13 13 13 13 13 13 13 13 13 13 13 13 13 13 13 13 12 12
18 18 17 17 17 17 17 17 17 17 17 17 17 17 16 16 16 16 16 15 15 16 15 14 13 13 13 13 13 12 13 12 12 12 12 12 12 12 12 12 12 12 12
18 18 18 17 17 17 17 17 17 17 16 16 16 16 16 16 16 16 16 15 15 15 15 14 13 13 13 12 12 12 12 12 12 12 12 12 12 12 12 12 12 11 11
18 18 17 17 17 17 17 17 16 16 16 16 16 16 16 16 16 15 15 15 15 15 14 14 13 13 12 12 12 12 12 12 11 12 12 12 12 12 11 11 11 11 11
18 18 18 17 17 17 17 17 16 16 16 16 16 16 16 16 15 15 15 15 15 14 14 14 13 13 12 12 12 12 11 11 11 11 11 11 11 11 11 11 11 11 10
18 18 18 17 17 17 17 17 16 16 16 16 16 16 16 15 15 15 15 15 14 14 14 14 13 13 12 12 12 12 11 11 11 11 11 11 11 11 11 11 10 10 10
18 18 18 17 17 17 17 17 16 16 16 16 16 16 15 15 15 15 15 14 14 14 14 14 13 13 12 12 12 11 11 11 11 10 10 10 10 10 10 10 10 10 10
18 18 17 17 17 17 17 17 17 16 16 16 15 15 15 15 15 15 15 15 14 14 14 14 13 13 12 12 11 11 11 11 11 10 10 10 10 10 10 9 10 9 9
18 18 17 17 17 17 17 17 17 16 16 15 15 15 15 15 15 15 15 14 14 14 14 13 13 12 12 12 11 11 11 11 11 10 10 10 10 10 9 9 9 9 9
18 18 17 17 17 17 17 17 17 16 15 15 15 15 14 14 14 14 14 14 14 13 13 13 12 12 12 12 11 11 11 10 10 10 10 10 10 9 9 9 9 9 9
18 17 17 17 17 17 17 17 16 16 15 15 15 14 14 14 14 14 14 13 13 13 13 13 12 12 12 12 11 11 10 11 11 10 10 10 10 10 9 9 9 9 9
17 17 17 17 16 17 17 16 16 15 15 15 15 14 14 14 14 14 13 13 13 12 12 12 12 12 11 11 11 11 10 11 11 11 10 10 10 10 9 9 9 9 9
Wind_Speed
4 4 4 4 4 4 4 4 4 5 5 5 5 5 5 5 5 5 7 8 5 4 4 4 5 5 6 6 6 7 7 8 7 8 9 10 11 10 10 10 10 11 11
4 3 4 3 4 4 4 4 5 4 4 4 4 5 4 4 5 4 5 6 5 4 4 3 4 4 6 6 6 6 6 6 6 7 8 9 9 8 9 8 9 10 11
4 3 3 3 4 4 4 4 5 5 4 4 4 4 4 4 4 4 4 3 5 6 5 3 3 4 5 6 6 6 5 6 6 6 7 7 7 8 8 8 8 8 9
3 2 2 3 3 3 3 4 3 4 4 4 3 3 3 4 3 3 3 3 2 3 4 4 2 3 4 5 5 5 5 6 6 6 7 7 7 8 8 8 8 8 7
2 2 2 3 2 2 3 3 4 3 4 3 3 3 3 3 3 3 3 3 3 2 2 6 4 3 2 2 3 4 5 6 7 6 6 6 7 6 6 7 7 7 6
2 1 2 2 2 3 3 3 3 3 3 3 3 4 3 3 2 2 1 2 2 2 1 2 3 4 4 2 1 2 4 5 7 6 6 6 7 6 7 7 8 7 7
2 1 1 2 1 2 2 2 3 4 3 3 2 2 3 2 2 1 1 1 2 2 2 2 1 1 3 4 2 2 2 2 4 6 7 6 6 6 6 7 6 6 7
1 1 1 0 1 2 2 2 2 2 2 2 1 1 2 3 2 2 2 1 1 2 2 2 1 1 1 2 3 2 1 2 3 4 6 5 6 6 5 6 5 6 6
1 1 0 0 1 1 2 2 2 2 1 1 1 2 1 1 2 2 2 2 2 1 1 1 2 1 1 1 2 3 2 1 1 1 3 4 4 5 5 6 6 6 6
1 1 0 0 1 1 1 2 2 2 2 1 1 1 1 1 1 2 2 2 2 2 2 1 2 2 2 2 3 5 5 4 4 3 2 3 2 3 3 5 5 6 5
1 1 1 0 1 1 1 1 1 2 2 2 1 1 1 2 2 2 1 2 1 1 2 1 2 2 3 4 4 7 7 6 5 5 4 3 2 1 1 2 3 3 3
0 1 1 1 1 1 1 2 3 3 2 2 2 2 2 2 2 2 2 2 2 1 2 2 2 2 3 5 6 8 8 7 6 6 5 4 3 2 1 1 2 2 3
0 1 1 1 1 1 1 2 3 3 3 4 4 3 3 3 2 2 2 2 1 1 2 2 2 3 3 4 6 7 8 8 7 6 5 5 4 4 4 3 2 3 4
1 1 1 1 1 1 1 1 2 3 3 3 3 3 3 3 2 2 2 2 2 1 2 2 2 3 4 4 6 4 7 9 7 7 6 6 6 5 5 6 6 6 5
1 1 0 0 0 0 1 1 1 2 2 3 3 3 2 2 2 2 2 3 2 2 1 2 2 3 3 5 5 6 8 10 9 8 7 7 7 6 6 7 7 7 8
1 1 1 1 1 1 1 1 1 1 2 2 2 1 2 2 1 2 2 2 2 2 1 3 2 3 4 5 6 7 8 10 10 9 9 8 8 8 8 8 9 9 8
2 2 2 1 1 1 1 1 1 1 2 1 1 1 1 1 1 1 2 2 2 2 3 3 3 4 4 4 5 6 6 6 8 10 9 9 9 9 9 9 9 9 9
3 3 2 2 2 2 2 2 2 2 2 2 2 2 2 2 2 1 1 2 2 2 4 5 4 4 4 4 4 4 4 5 7 10 9 9 10 10 10 10 9 9 8
4 3 3 3 3 2 2 2 2 2 2 2 2 3 2 3 2 2 2 3 3 3 3 5 5 4 4 4 4 3 4 4 5 8 9 9 9 9 9 9 8 8 8
4 4 3 3 3 3 3 3 2 2 2 2 2 2 3 3 3 3 3 4 4 4 5 5 5 5 4 4 3 3 3 3 2 4 5 6 7 7 7 6 6 6 7
5 5 4 4 4 4 3 3 3 3 3 3 2 2 2 3 3 2 2 4 5 4 4 4 5 4 4 3 3 2 3 3 3 2 2 3 4 4 4 5 5 5 5
6 5 5 5 5 3 3 2 3 3 3 4 3 3 4 5 6 5 5 4 3 4 4 4 4 4 4 3 2 2 2 2 2 2 1 2 2 2 3 3 5 5 5
7 6 6 6 5 3 4 4 4 4 4 4 4 4 3 4 6 6 7 6 4 3 1 2 3 3 4 4 3 3 2 2 0 2 2 2 2 2 2 5 7 6 5
7 7 7 6 6 5 6 6 5 5 4 4 4 5 4 4 5 5 6 6 5 4 3 2 1 2 3 3 4 3 3 3 2 3 3 2 2 2 2 4 8 7 6
7 7 7 7 7 6 7 8 7 5 4 5 4 4 5 5 6 6 6 6 5 5 5 5 4 4 4 4 4 3 3 3 3 3 4 3 2 2 3 3 7 10 9
7 7 6 7 7 7 8 9 9 6 5 5 5 5 4 5 7 7 6 6 6 5 5 5 5 5 5 6 6 4 4 4 3 2 3 3 2 2 3 3 3 5 7
Wind_Direction
82 87 83 76 83 91 106 106 107 107 108 109 105 103 104 100 97 96 108 121 131 144 150 163 175 183 184 189 190 194 199 200 201 204 204 206 208 210 209 211 212 210 207
85 86 95 85 82 80 82 99 104 109 111 105 104 100 98 102 95 89 98 119 127 131 139 148 159 168 174 178 177 177 186 190 190 195 201 205 207 209 208 212 217 217 214
92 99 91 96 84 89 102 107 106 113 118 114 108 108 102 88 86 87 92 103 131 137 132 144 160 166 176 181 181 178 188 195 200 199 200 201 204 206 209 214 218 218 219
90 91 90 89 95 102 107 110 115 113 110 110 107 103 101 100 96 97 99 95 98 119 140 135 147 167 177 190 192 191 199 203 209 215 216 215 216 216 214 215 216 219 220
98 98 86 86 110 104 102 108 105 105 110 110 115 113 107 99 97 96 90 87 87 87 106 131 141 132 148 174 190 209 209 210 211 218 223 221 221 221 223 222 221 219 220
91 73 112 102 102 102 99 95 104 110 114 120 114 103 100 106 103 106 109 103 99 99 85 99 140 149 140 139 166 202 212 222 215 216 219 218 217 216 223 228 228 225 225
94 88 76 108 116 109 106 127 136 137 136 130 133 131 130 127 118 124 127 93 90 78 71 81 97 114 147 164 173 195 213 219 216 216 214 211 207 205 212 218 216 217 219
75 130 113 162 135 132 143 147 156 159 159 176 215 194 171 155 148 142 144 146 113 99 89 72 65 39 6 108 120 160 200 243 239 216 204 199 203 203 201 203 204 211 219
60 38 98 252 181 186 158 175 182 186 188 191 239 269 256 148 140 125 106 98 86 72 76 76 78 61 34 34 72 112 122 145 200 155 165 179 186 198 202 206 210 210 213
31 15 16 241 251 223 182 204 176 205 213 212 181 242 293 319 248 151 136 115 101 80 43 31 55 61 55 60 71 71 88 86 84 86 107 135 168 197 209 218 220 217 215
29 351 343 295 247 239 211 224 204 228 227 240 235 223 216 215 238 228 181 149 131 95 81 60 58 56 63 65 70 77 83 80 77 75 75 80 86 160 193 213 212 208 199
88 30 359 324 283 279 223 218 223 214 234 243 251 248 246 243 229 222 213 189 158 105 88 70 56 59 69 73 75 77 80 78 76 73 71 70 64 60 89 128 151 172 159
92 53 2 331 316 301 243 226 218 230 227 231 240 245 247 247 248 238 219 200 178 144 113 111 79 80 81 80 83 87 88 79 77 75 73 73 76 73 73 87 108 130 131
8 41 25 345 323 293 252 216 222 217 220 227 237 246 250 242 229 224 225 204 189 179 148 104 84 76 70 76 80 93 89 78 75 73 70 74 77 81 79 83 86 96 106
198 140 212 266 288 244 250 228 211 212 207 223 226 226 245 236 235 226 213 219 221 206 167 129 111 83 77 79 73 87 87 82 78 76 75 76 77 84 92 94 97 99 100
217 219 240 235 232 224 221 237 217 194 205 218 233 233 240 222 214 210 206 213 226 216 166 118 119 109 86 93 88 90 94 98 85 82 81 80 80 79 83 90 94 97 100
203 213 221 233 226 217 206 211 230 196 204 197 202 192 201 240 220 202 187 182 178 160 146 128 118 116 112 102 98 97 103 103 94 88 87 85 84 83 83 84 87 89 91
203 204 209 217 219 210 202 206 217 209 199 190 184 172 177 176 180 196 179 163 150 151 149 141 137 137 130 126 118 117 110 103 101 99 96 91 89 87 86 86 89 92 91
201 201 206 215 216 212 206 206 210 204 192 187 182 176 173 165 167 152 162 151 148 144 143 149 145 141 141 141 138 132 113 107 111 117 113 105 99 96 92 92 93 97 99
196 196 200 208 208 206 204 204 200 189 184 181 181 176 168 167 164 159 155 156 150 149 149 154 149 150 148 152 163 149 141 135 117 114 107 112 117 114 106 102 103 106 106
197 195 199 202 202 204 204 198 192 183 175 163 156 157 148 124 108 133 156 152 156 163 165 162 158 155 151 164 177 177 154 145 132 129 130 128 136 138 132 135 130 125 120
196 193 200 206 206 206 131 153 211 188 179 172 165 159 153 148 136 125 105 109 131 168 173 173 169 166 164 174 177 186 167 177 167 158 184 155 158 151 136 123 133 146 152
192 195 201 204 204 190 157 172 204 199 191 184 181 181 178 146 150 147 138 141 130 106 143 193 173 176 169 169 184 196 186 221 220 148 212 199 180 173 148 116 132 154 168
195 198 202 203 204 196 174 184 199 196 194 191 190 187 179 169 164 157 153 150 151 151 162 183 163 177 155 158 188 203 194 192 192 187 215 232 188 198 177 155 155 168 177
202 204 203 204 206 201 186 192 204 197 191 194 194 189 184 178 146 165 169 163 159 152 127 106 87 104 105 145 185 198 192 208 208 192 200 230 212 218 219 201 174 182 193
208 210 208 210 211 210 189 194 211 207 198 194 184 180 173 179 156 174 184 174 170 167 158 152 150 161 168 172 191 218 218 228 229 213 178 224 224 226 228 207 198 195 203
Height
1544 1544 1544 1545 1546 1547 1547 1547 1548 1548 1549 1550 1551 1552 1553 1554 1555 1556 1555 1555 1555 1555 1555 1556 1556 1557 1557 1558 1559 1559 1560 1561 1562 1563 1564 1565 1566 1567 1568 1569 1570 1571 1572
1545 1545 1546 1546 1547 1548 1548 1548 1548 1549 1550 1551 1552 1552 1554 1555 1555 1556 1556 1555 1555 1555 1555 1555 1556 1555 1556 1556 1557 1558 1559 1560 1561 1562 1563 1564 1565 1566 1566 1567 1568 1569 1570
1546 1546 1547 1548 1548 1548 1548 1549 1549 1550 1551 1552 1553 1553 1554 1554 1555 1555 1556 1556 1556 1555 1555 1555 1555 1555 1555 1556 1556 1557 1558 1559 1560 1561 1561 1562 1563 1564 1565 1565 1566 1567 1568
1547 1547 1548 1549 1549 1550 1550 1550 1550 1551 1551 1552 1553 1554 1555 1555 1555 1556 1556 1556 1556 1556 1555 1555 1555 1555 1555 1555 1556 1556 1557 1557 1558 1559 1559 1560 1561 1562 1563 1563 1564 1565 1565
1548 1548 1549 1549 1549 1550 1551 1551 1551 1552 1552 1553 1554 1554 1555 1555 1556 1556 1556 1556 1556 1556 1556 1555 1554 1554 1554 1554 1555 1555 1556 1556 1556 1557 1557 1558 1558 1559 1560 1561 1561 1562 1562
1548 1549 1549 1549 1550 1550 1550 1551 1551 1552 1553 1553 1555 1555 1555 1556 1556 1556 1556 1557 1556 1556 1556 1556 1555 1555 1554 1554 1554 1554 1554 1554 1554 1554 1555 1555 1556 1557 1557 1558 1559 1559 1560
1549 1549 1550 1549 1550 1550 1550 1551 1552 1552 1553 1553 1555 1555 1556 1556 1556 1556 1556 1556 1556 1556 1555 1555 1555 1555 1555 1554 1553 1553 1553 1552 1551 1551 1552 1552 1553 1554 1555 1555 1555 1556 1557
1549 1549 1549 1549 1550 1550 1550 1551 1551 1552 1553 1553 1555 1555 1556 1557 1556 1556 1556 1555 1556 1556 1555 1555 1554 1554 1554 1554 1553 1552 1552 1551 1550 1549 1550 1550 1551 1552 1553 1553 1553 1554 1554
1549 1549 1549 1549 1549 1550 1550 1550 1551 1551 1552 1553 1553 1555 1554 1555 1555 1556 1555 1555 1555 1555 1555 1555 1554 1553 1553 1553 1552 1551 1550 1550 1549 1549 1549 1549 1549 1550 1550 1551 1551 1551 1551
1549 1548 1548 1548 1549 1550 1549 1550 1550 1551 1551 1552 1552 1552 1553 1554 1554 1555 1555 1554 1554 1554 1554 1554 1553 1553 1552 1552 1551 1550 1549 1549 1549 1548 1548 1548 1548 1548 1548 1549 1549 1548 1549
1548 1548 1547 1547 1548 1548 1548 1548 1549 1549 1550 1551 1552 1552 1552 1552 1552 1553 1553 1554 1554 1553 1553 1552 1552 1552 1552 1551 1550 1549 1549 1548 1548 1547 1547 1546 1546 1546 1547 1547 1546 1546 1547
1547 1547 1547 1546 1546 1547 1547 1547 1547 1548 1548 1549 1550 1551 1551 1551 1551 1552 1552 1552 1552 1553 1552 1551 1552 1551 1551 1551 1550 1549 1548 1548 1547 1546 1546 1545 1545 1545 1544 1544 1544 1544 1544
1547 1546 1546 1545 1545 1545 1545 1546 1546 1546 1547 1547 1548 1549 1549 1549 1549 1550 1550 1550 1551 1551 1551 1551 1551 1550 1550 1550 1549 1548 1547 1547 1546 1546 1545 1544 1543 1543 1542 1542 1542 1542 1543
1546 1545 1544 1544 1544 1544 1544 1544 1545 1545 1545 1545 1546 1546 1547 1547 1547 1548 1548 1549 1549 1550 1550 1550 1550 1549 1549 1549 1548 1547 1547 1546 1545 1545 1544 1543 1542 1542 1541 1541 1541 1541 1541
1544 1544 1544 1544 1543 1543 1543 1543 1544 1544 1544 1544 1544 1545 1545 1545 1545 1546 1546 1547 1548 1548 1548 1548 1548 1548 1548 1547 1547 1546 1546 1545 1545 1544 1543 1543 1542 1541 1541 1540 1540 1540 1540
1543 1543 1543 1543 1543 1543 1543 1543 1543 1543 1542 1542 1542 1542 1543 1543 1544 1544 1544 1545 1545 1546 1546 1546 1546 1547 1546 1547 1546 1546 1545 1545 1544 1544 1543 1542 1541 1541 1540 1540 1540 1540 1540
1541 1542 1542 1542 1541 1541 1541 1542 1542 1542 1542 1541 1541 1541 1541 1541 1542 1542 1543 1543 1543 1544 1544 1545 1545 1545 1545 1545 1545 1545 1545 1545 1544 1543 1543 1542 1541 1541 1540 1539 1539 1539 1539
1540 1540 1541 1540 1541 1540 1540 1540 1540 1541 1540 1540 1540 1540 1540 1540 1540 1541 1541 1542 1542 1542 1543 1543 1544 1544 1544 1544 1544 1545 1545 1545 1544 1543 1542 1542 1541 1540 1540 1539 1539 1539 1539
1539 1539 1539 1539 1539 1539 1539 1539 1539 1539 1539 1539 1539 1539 1539 1539 1539 1539 1539 1540 1540 1541 1541 1542 1542 1543 1543 1544 1544 1544 1544 1544 1544 1543 1542 1541 1541 1540 1540 1539 1539 1538 1538
1537 1537 1537 1537 1538 1537 1537 1537 1537 1537 1537 1537 1537 1537 1537 1538 1538 1538 1538 1538 1539 1539 1540 1541 1542 1542 1543 1543 1543 1544 1544 1544 1544 1543 1542 1541 1541 1540 1540 1539 1539 1538 1538
1535 1535 1535 1535 1536 1536 1536 1536 1536 1536 1536 1536 1536 1536 1536 1536 1536 1536 1537 1537 1538 1539 1539 1540 1540 1541 1542 1542 1543 1543 1543 1543 1543 1543 1542 1542 1541 1540 1540 1539 1538 1537 1537
1532 1533 1533 1534 1534 1535 1534 1534 1534 1534 1534 1534 1534 1535 1535 1534 1535 1535 1535 1535 1536 1537 1538 1539 1539 1540 1540 1541 1541 1542 1542 1542 1542 1542 1542 1542 1541 1540 1540 1539 1537 1537 1536
1529 1530 1531 1531 1532 1532 1532 1532 1532 1532 1532 1532 1533 1533 1534 1533 1533 1534 1534 1534 1535 1535 1537 1538 1538 1538 1539 1539 1539 1540 1540 1541 1541 1540 1540 1540 1540 1539 1539 1538 1537 1536 1536
1526 1527 1528 1528 1528 1529 1529 1529 1530 1530 1530 1530 1530 1531 1531 1532 1532 1532 1533 1533 1534 1534 1535 1536 1537 1537 1537 1537 1537 1538 1539 1539 1539 1539 1539 1540 1539 1539 1538 1537 1536 1535 1535
1523 1523 1524 1525 1525 1525 1526 1526 1527 1527 1527 1528 1528 1529 1529 1530 1530 1531 1532 1532 1532 1533 1533 1534 1534 1535 1535 1535 1536 1537 1537 1538 1538 1538 1537 1538 1538 1537 1537 1536 1535 1534 1533
1519 1520 1521 1521 1522 1522 1522 1523 1523 1524 1525 1525 1525 1525 1526 1527 1528 1529 1530 1530 1531 1532 1532 1532 1533 1533 1533 1534 1534 1535 1536 1536 1536 1537 1536 1536 1536 1536 1535 1535 1534 1533 1532